Regional Weather Roundup
Issued by NWS Cleveland, OH

Home | Current Version | Previous Version | Graphics & Text | Print | Product List | Glossary On
Versions: 1 2 3 4 5 6 7 8 9 10 11 12 13 14 15 16 17 18 19 20 21 22 23 24 25 26 27 28 29 30 31 32 33 34 35 36 37 38 39 40 41 42 43 44 45 46 47 48 49 50
000
ASUS41 KCLE 070010
RWRCLE
OHIO REGIONAL WEATHER ROUNDUP
NATIONAL WEATHER SERVICE WILMINGTON, OH
800 PM EDT WED MAY 06 2015

NOTE: "FAIR" INDICATES FEW OR NO CLOUDS BELOW 12,000 FEET WITH NO
SIGNIFICANT WEATHER AND/OR OBSTRUCTIONS TO VISIBILITY.

OHZ001>008-015>018-024>027-034-035-043-044-070100-
   NORTHWEST OHIO

CITY           SKY/WX    TMP DP  RH WIND       PRES   REMARKS
DEFIANCE       CLEAR     72  60  66 E6        30.13F
FINDLAY        CLEAR     73  59  61 NE9       30.13S
TOLEDO EXPRESS CLEAR     63  56  78 E10       30.15F
TOLEDO EXEC    CLEAR     63  54  72 NE8       30.16F
LIMA           CLEAR     76  58  53 NE6       30.12F
$$

OHZ009>014-019>023-028>033-038-089-070100-
   NORTHEAST OHIO

CITY           SKY/WX    TMP DP  RH WIND       PRES   REMARKS
CLE-HOPKINS    PTCLDY    64  55  72 NE8       30.18F
CLE-LAKEFRONT  PTCLDY    53  51  93 CALM      30.16F FOG
CUY CO. ARPT   PTCLDY    66  59  77 N5        30.17F
LORAIN-ELYRIA  CLEAR     66  55  67 NE7       30.16F
ASHTABULA      CLEAR     65  57  75 N3        30.18S
AKRON-CANTON   PTCLDY    73  56  54 N6        30.15S
WOOSTER        CLEAR     72  59  63 NE6       30.16R
MANSFIELD      CLEAR     73  60  63 NE6       30.16R
YOUNGSTOWN     PTCLDY    71  58  63 N7        30.16S
$$

OHZ042-051>053-060>062-070>072-077>081-070100-
  SOUTHWEST OHIO

CITY           SKY/WX    TMP DP  RH WIND       PRES   REMARKS
CINC-COVINGTON PTCLDY    82  53  36 CALM      30.10S
CINC-LUNKEN    CLEAR     73  62  68 CALM      30.09S
HAMILTON       CLEAR     78  60  53 CALM      30.10F
DAYTON         PTCLDY    79  57  46 NE5       30.13S
WRIGHT-PAT AFB PTCLDY    80  56  44 N5        30.10F
DAYTON GENERAL CLEAR     81  51  35 CALM      30.10F
WILMINGTON     CLEAR     79  50  36 N6        30.11S
$$

OHZ036-037-039>041-045>050-054>059-063>069-073>076-082>088-070100-
  CENTRAL AND SOUTHEAST OHIO

CITY           SKY/WX    TMP DP  RH WIND       PRES   REMARKS
COLUMBUS       PTCLDY    79  53  40 NE6       30.10S
OSU AIRPORT    CLEAR     76  56  49 N5        30.11S
BOLTON FIELD   CLEAR     77  57  50 NW6       30.12S
RICKENBACK AFB CLEAR     77  55  45 NE6       30.10S
NEWARK         CLEAR     78  55  44 N3        30.11S
MARION         CLEAR     76  58  53 NE8       30.14S
LANCASTER      CLEAR     80  55  42 N8        30.11S
ZANESVILLE     CLEAR     78  56  46 NE6       30.12R
NEW PHILLY     CLOUDY    80  60  50 N3        30.13S
$$



USA.gov is the U.S. government's official web portal to all federal, state and local government web resources and services.